Lapse_Rate
5.6 5.6 5.6 5.7 5.9 6.0 5.9 5.9 5.7 5.7 5.8 5.8 5.9 5.9 5.9 5.8 5.7 5.6 5.4 5.8 5.6 5.8 5.9 6.0 6.1 6.3 6.4 6.4 6.5 6.4 6.4 6.4 6.3
5.7 5.7 5.7 5.6 5.7 5.8 6.1 6.1 6.0 5.8 5.8 5.8 5.8 5.9 5.9 5.9 6.0 5.9 5.8 5.9 5.7 5.7 5.8 5.8 5.8 5.9 6.2 6.3 6.5 6.5 6.5 6.4 6.4
6.1 6.0 5.8 5.7 5.7 5.8 5.8 6.0 6.1 6.0 5.8 5.8 5.8 5.9 5.9 6.0 6.1 6.1 6.1 5.9 5.8 5.8 5.7 5.7 5.8 5.8 5.9 5.9 6.0 6.1 6.2 6.2 6.2
6.1 6.1 6.1 5.9 5.8 5.6 5.7 5.8 6.0 6.1 6.0 6.0 5.8 5.8 6.0 6.1 6.1 6.2 6.4 6.1 6.1 5.9 5.8 5.8 5.8 5.7 5.7 5.7 5.7 5.7 5.8 5.9 5.9
5.9 6.0 6.2 6.2 6.0 5.9 5.7 5.6 5.8 5.9 6.0 5.9 6.0 5.8 5.9 6.1 6.1 6.3 6.4 6.3 6.3 6.2 6.1 5.9 5.8 5.8 5.7 5.7 5.8 5.7 5.7 5.7 5.7
6.1 6.2 6.2 6.0 6.0 6.0 5.9 5.8 5.8 5.7 5.9 5.9 5.9 5.9 6.0 6.0 6.1 6.3 6.4 6.4 6.4 6.3 6.3 6.2 6.1 5.9 5.9 5.7 5.8 5.8 5.8 5.8 5.7
6.2 6.2 6.2 6.0 6.3 6.1 6.0 6.0 5.9 5.7 5.8 6.0 5.9 5.9 6.1 5.9 6.0 6.2 6.4 6.4 6.5 6.5 6.4 6.4 6.4 6.4 6.2 6.1 6.0 5.9 5.9 5.9 5.9
6.3 6.3 6.3 6.1 5.9 6.1 6.0 6.0 6.0 5.9 5.9 5.9 5.8 5.9 5.9 6.0 6.0 6.1 6.3 6.4 6.4 6.5 6.4 6.4 6.4 6.5 6.6 6.4 6.2 6.1 6.0 6.0 6.0
7.0 6.8 6.6 6.7 6.5 6.2 6.2 6.0 5.9 5.9 6.0 5.9 5.9 6.0 6.0 6.1 6.1 6.1 6.4 6.4 6.3 6.4 6.5 6.3 6.3 6.2 6.2 6.3 6.3 6.2 6.1 6.0 5.9
7.3 7.1 6.9 6.8 6.6 6.5 6.4 6.1 6.0 6.1 6.1 6.0 6.0 5.9 6.3 6.2 6.2 6.1 6.3 6.4 6.2 6.3 6.4 6.4 6.2 6.1 6.1 5.9 5.7 5.7 5.8 5.8 5.7
7.3 7.3 7.2 7.1 6.8 6.4 6.4 6.4 6.0 6.0 5.7 6.1 6.1 6.1 6.1 6.3 6.3 6.4 6.2 6.4 6.3 6.2 6.2 6.2 6.2 6.1 6.0 6.0 5.8 5.8 5.7 5.7 5.6
7.0 7.1 7.0 6.9 6.7 6.6 6.3 6.0 6.3 6.0 6.0 5.6 5.9 6.1 6.3 6.3 6.3 6.2 6.4 6.3 6.3 6.2 6.2 6.2 6.0 6.1 6.1 5.9 5.9 5.8 5.7 5.7 5.5
6.9 6.9 6.7 6.4 6.3 6.3 6.1 6.0 5.8 6.1 5.8 6.0 5.6 5.7 6.2 6.2 6.2 6.2 6.1 6.2 6.3 6.2 6.0 6.1 6.0 6.0 5.9 6.0 6.0 5.8 5.6 5.6 5.5
6.5 6.1 5.8 5.6 5.8 6.0 5.9 5.8 5.3 5.4 5.7 5.7 5.6 5.7 6.0 6.2 6.3 6.3 6.2 5.9 6.0 6.4 6.1 5.9 5.8 5.9 6.0 5.9 5.9 5.8 5.7 5.5 5.5
6.3 6.0 5.4 5.7 6.3 6.6 6.8 6.7 6.4 5.4 5.6 5.5 5.4 5.7 5.9 5.9 6.1 6.4 6.3 5.9 5.9 6.0 6.1 5.7 5.8 6.0 5.7 5.8 5.7 6.0 5.6 5.5 5.6
6.1 5.7 5.3 5.4 6.1 6.4 6.5 6.2 6.1 6.4 5.6 5.5 5.5 5.6 5.9 5.7 5.9 6.0 6.1 5.3 5.6 6.1 5.9 5.9 5.7 5.8 6.1 5.7 5.9 6.0 5.6 5.6 6.0
5.9 5.6 5.3 5.4 6.3 6.3 5.9 6.1 6.1 6.3 6.6 5.5 5.4 5.8 5.9 5.5 5.0 5.3 5.8 5.2 5.5 5.7 5.7 5.3 5.3 5.5 4.3 5.2 5.3 5.2 5.1 5.7 5.7
5.7 5.5 5.2 5.1 5.9 5.9 6.1 6.1 6.2 6.4 6.6 6.3 5.6 5.7 6.0 5.9 5.6 5.4 5.7 5.4 4.9 5.5 5.0 4.9 5.2 4.9 4.6 4.7 5.0 4.5 4.7 5.4 5.8
5.7 5.3 5.2 5.0 5.3 5.8 6.2 6.2 6.3 6.6 7.0 6.6 5.8 6.1 6.2 5.7 5.6 4.9 5.0 5.3 5.2 5.3 4.8 5.0 5.1 4.6 4.9 5.1 4.3 4.4 5.3 5.7 5.8
5.7 5.4 5.3 5.3 5.0 5.6 5.5 6.2 6.2 6.7 6.8 6.4 6.2 6.5 6.2 5.7 5.3 5.2 5.7 5.8 5.8 5.9 5.8 5.6 5.2 4.7 5.3 5.5 5.0 5.1 5.5 5.6 5.5
Wind_Speed
11 11 13 13 12 12 11 10 12 14 13 12 12 11 10 9 11 14 6 10 12 10 7 7 8 6 7 7 7 7 6 6 6
12 12 13 14 14 13 11 11 11 14 15 15 14 13 12 11 14 14 9 10 11 10 10 9 9 8 7 7 6 6 5 5 5
15 16 15 14 16 16 15 15 14 16 17 17 17 16 16 13 15 15 11 15 13 10 11 11 10 10 10 9 9 8 7 6 6
16 18 18 18 16 17 17 16 17 17 19 18 18 18 19 17 13 15 10 18 14 13 12 12 12 11 11 10 9 8 8 7 6
22 22 18 18 20 18 18 18 18 19 19 19 20 20 20 17 15 14 12 22 18 16 15 14 14 13 12 11 11 10 9 9 8
16 7 6 9 15 21 19 20 19 20 21 21 21 21 13 13 14 14 15 20 19 18 17 17 15 15 14 13 12 11 11 10 10
20 18 18 17 18 16 20 21 21 20 14 15 21 15 15 14 14 16 18 22 21 19 19 18 19 18 17 15 15 14 13 13 12
15 15 13 11 13 11 13 15 16 15 14 13 13 17 16 15 17 19 25 25 24 21 21 20 17 20 19 19 19 18 16 15 15
7 6 11 10 11 7 9 6 10 14 18 17 13 15 16 16 17 17 25 27 25 23 22 22 20 20 22 21 20 19 18 18 17
9 9 9 10 14 9 5 4 7 8 9 11 12 11 12 17 16 16 27 28 25 23 23 23 23 22 20 21 21 19 19 20 19
4 6 7 6 11 11 7 5 5 8 7 10 10 12 11 13 15 12 17 26 24 24 24 24 24 23 22 21 20 20 20 20 20
7 5 7 9 13 13 9 6 5 4 7 10 10 10 10 10 11 12 9 17 24 24 25 25 24 23 23 22 20 18 20 20 20
7 4 5 11 12 7 6 5 6 4 4 7 8 7 9 11 9 14 12 11 15 19 23 24 24 23 24 23 22 20 18 20 20
11 4 5 10 6 7 6 9 5 5 4 4 6 7 9 8 7 7 7 9 12 13 20 24 24 24 24 24 22 21 18 15 17
12 4 5 7 5 6 5 8 7 5 4 4 6 7 6 5 6 6 6 6 7 10 10 12 16 21 20 21 20 19 17 13 12
9 7 8 7 7 8 9 7 7 6 4 4 5 5 7 7 4 5 6 3 7 3 1 8 7 8 15 12 13 15 16 11 9
9 7 8 10 8 9 9 8 6 6 4 3 3 2 2 4 5 3 5 6 7 7 9 10 10 9 9 18 17 10 5 5 4
8 8 8 9 8 8 6 5 3 9 4 6 5 1 2 2 3 5 7 8 4 6 10 5 10 16 9 9 12 13 10 8 7
9 10 8 8 8 9 5 6 5 3 4 2 3 3 3 3 2 1 1 8 6 5 6 5 10 11 9 12 14 11 11 10 9
7 10 8 8 6 8 9 10 10 3 3 3 1 2 2 3 2 3 2 1 1 4 5 9 7 7 8 10 7 10 11 12 11
Wind_Direction
271 260 258 266 266 276 269 264 216 194 191 201 205 203 201 216 246 267 154 106 154 153 155 139 145 142 142 146 143 138 135 128 120
275 264 255 252 252 250 257 248 230 196 195 204 208 206 207 219 250 265 175 151 166 168 173 170 166 164 161 161 159 153 151 144 139
296 281 260 250 247 245 242 240 229 210 204 209 211 206 208 226 256 273 200 179 178 183 187 186 184 181 180 179 179 176 174 173 169
281 277 268 259 250 244 241 236 226 220 216 215 216 214 210 224 250 259 210 169 184 192 196 197 198 195 194 193 193 193 192 191 193
272 256 259 261 252 245 241 238 232 227 224 222 221 224 218 219 244 262 244 180 190 198 204 205 206 206 206 205 204 205 207 209 209
292 245 263 287 275 245 238 240 237 230 225 223 224 226 217 218 239 247 246 187 195 198 209 208 212 214 212 213 214 215 218 221 223
322 309 287 282 274 268 244 234 233 232 228 230 228 222 218 222 232 236 225 186 195 201 210 218 212 213 214 216 218 221 222 224 228
302 309 304 273 262 253 253 247 237 224 220 220 212 217 215 223 231 233 218 192 199 203 209 220 222 216 217 215 215 219 222 226 229
312 308 308 310 296 247 242 248 240 227 220 212 214 213 212 220 228 231 203 191 194 203 211 220 224 227 220 219 221 220 219 222 227
323 318 312 314 315 310 278 249 267 247 238 225 213 212 221 221 224 231 199 187 191 197 208 221 227 228 230 230 226 224 224 225 226
314 320 316 304 300 300 294 264 249 274 255 244 232 225 223 232 233 230 195 191 194 196 204 218 227 229 230 234 232 227 229 231 233
322 312 307 301 296 299 300 289 254 254 273 263 249 236 233 228 230 246 189 197 197 198 205 214 222 227 230 233 235 232 227 232 234
289 282 289 296 299 293 294 290 287 252 260 277 268 250 238 230 230 232 235 188 196 205 209 213 219 224 226 230 235 237 233 226 232
315 294 276 281 290 292 294 300 286 266 253 271 273 268 258 240 238 237 239 218 194 198 209 212 219 222 223 227 233 238 240 237 234
301 291 292 291 278 278 275 277 282 265 255 268 275 268 249 244 243 244 250 252 228 191 196 212 227 227 227 230 234 242 246 250 255
324 349 332 317 309 302 297 282 273 280 261 288 282 251 250 239 287 280 266 292 303 258 356 74 19 311 225 223 239 243 235 244 268
351 345 323 317 309 290 285 285 296 278 255 242 250 292 42 48 26 108 59 15 8 210 84 44 84 71 17 61 57 50 45 54 4
355 339 317 320 314 295 275 295 360 281 288 258 233 297 140 126 6 42 95 51 83 65 64 18 77 82 82 65 57 43 34 39 8
359 334 324 323 331 327 310 322 279 249 271 302 260 213 156 156 145 46 98 123 126 145 123 101 76 84 96 76 61 44 45 38 27
349 333 331 329 338 337 346 7 358 341 261 211 210 43 60 80 119 167 173 277 272 162 149 141 138 128 102 90 60 61 41 31 18